Location: Borojevi?i
(45.0486°N, 16.2297°E)
Time: 05:27:01
(UTC+00:00)

Lacrosse 5 - Pass Details

Date: 08 August 2020
Orbit: 717 x 720 km, 57.0° (Epoch: 18 September)

Event Time Altitude Azimuth Distance (km) Brightness Sun altitude
Rises 21:38:26 0° 310° (NW) 3,129 6.1 -26.3°
Reaches altitude 10° 21:40:49 10° 310° (NW) 2,206 5.2 -26.5°
Enters shadow 21:45:31 77° 299° (WNW) 742 1.9 -26.8°
